Voltar ao catálogo

FENGYUN 1C DEB

AtivoSSO
NORAD 31047·DEBRIS·🇨🇳 China

Lançado May 10, 1999 de Taiyuan Satellite Launch Center

Loading…

Próximas Passagens (próximas 24 horas)

TLE

AtualizadoSource: Space-Track

Época: Sep 14, 2026, 11:42 UTC

1 31047U 99025BER 26257.48754966  .00000428  00000-0  24578-3 0  9994
2 31047  98.7137 252.8638 0026679 111.9110  39.4131 14.14228015  2135

Acompanhe FENGYUN 1C DEB em tempo real com AllMySat

Download on the App Store